Location: Tarleton Observatory
(32.2162°N, 98.0976°W)
Time: 06:20:29
(UTC-06:00)

Daily predictions for brighter satellites

Satellite Brightness Start Highest point End
(mag) Time Altitude Azimuth Time Altitude Azimuth Time Altitude Azimuth
Okean 1 3.3 18:44:59 10° N 18:49:03 73° E 18:53:05 10° S
Cosmos 2181 Rocket 4.3 18:50:01 10° N 18:56:05 48° E 19:02:12 10° SSE
Okean 1 Rocket 3.3 18:54:16 10° SSE 18:58:33 47° E 19:02:51 10° NNE
OTV 4 1.2 18:56:56 10° SW 18:59:44 38° SSE 19:02:21 11° E
Cosmos 1602 3.7 18:55:57 10° S 18:59:47 76° E 19:03:41 10° N
Cosmos 1709 Rocket 4.0 18:54:25 10° S 19:00:40 88° E 19:06:51 10° N
Cosmos 2184 Rocket 4.5 19:01:23 10° SSE 19:07:05 37° E 19:12:45 10° NNE
Meteor 1-11 Rocket 3.8 19:02:41 10° S 19:08:26 77° E 19:14:20 10° N
Cosmos 1340 2.6 19:05:41 10° N 19:09:28 81° E 19:13:14 10° S
ALOS 2.9 19:07:02 10° SE 19:11:13 34° ENE 19:15:26 10° N
Cosmos 1025 Rocket 4.0 19:10:32 10° NNE 19:14:11 25° ENE 19:17:49 10° SE
OAO 3 Copernicus 4.4 19:09:25 10° WNW 19:14:30 78° SSW 19:19:05 13° ESE
SL-16 R/B 4.0 19:15:19 10° NW 19:20:23 35° WSW 19:25:26 10° SSW
Abrixas rocket 3.9 19:19:29 10° W 19:22:28 29° NNW 19:25:28 10° NNE
Cosmos 2333 Rocket 3.7 19:19:27 10° NNE 19:22:54 16° ENE 19:23:54 15° ENE
FREGAT/IRIS 2.5 19:20:12 10° SSE 19:23:16 78° ENE 19:26:21 10° N
NOAA 12 4.3 19:21:40 10° S 19:26:58 78° WSW 19:32:19 10° NNW
Tiangong 2 2.8 19:25:22 10° W 19:28:05 29° SW 19:30:47 10° SSE
FENGYUN 3A 3.8 19:23:14 10° SSE 19:28:28 53° ENE 19:33:44 10° N
Cosmos 1741 Rocket 4.3 19:25:56 10° SSW 19:31:07 69° WNW 19:36:20 10° N
Genesis I 3.4 19:29:12 10° NNW 19:33:01 47° ENE 19:35:12 22° ESE
GPS 2-04 Rocket1 3.2 19:29:52 10° W 19:34:05 60° N 19:36:30 24° ENE
Okean 1-7 Rocket 3.5 19:32:43 10° N 19:37:13 67° E 19:41:38 10° SSE
GEOS 3 Rocket 3.6 19:34:34 10° NNE 19:39:50 87° ESE 19:45:09 10° SSW
OAO 3 Rocket 3.8 19:37:06 10° SW 19:41:44 41° SSE 19:43:34 29° ESE
Cosmos 2285 Rocket 4.4 19:36:23 10° N 19:42:27 42° ENE 19:47:08 16° SE
Meteor 1-5 Rocket 4.3 19:37:04 10° S 19:43:01 78° E 19:48:57 10° N
FengYun 1-2 T 4.1 19:37:49 10° SSE 19:43:16 73° ENE 19:48:45 10° N
Cosmos 2082 4.3 19:41:47 10° SSE 19:46:49 33° ESE 19:48:27 28° ENE
Hubble Space Telescope 1.5 19:43:12 10° WSW 19:47:05 41° S 19:48:14 33° SE
SJ-6B 3.6 19:43:12 10° S 19:47:08 53° W 19:50:59 10° NNW
Cosmos 1570 Rocket 3.9 19:48:40 10° NNW 19:53:55 88° WSW 19:59:09 10° SSE
Cosmos 2322 4.4 19:49:50 10° NNW 19:55:24 55° WSW 20:00:56 10° S
CZ-2D R/B 3.4 19:59:21 51° NE 19:59:21 51° NE 20:02:37 10° N
Helios 1A 3.8 20:00:23 33° NNE 20:00:23 33° NNE 20:03:06 10° N
H-2A R/B 2.5 19:57:59 25° SSE 20:00:02 84° ENE 20:03:47 10° N
Cosmos 405 Rocket 4.2 19:56:51 10° N 19:58:51 25° NNE 19:58:51 25° NNE
Spot 2 Rocket 3.4 19:59:49 10° SSE 20:04:52 87° WSW 20:09:57 10° NNW
Okean 2 3.2 20:01:01 10° N 20:05:11 69° E 20:05:39 62° SE
Cosmos 468 Rocket 4.5 20:01:10 10° N 20:05:35 39° NE 20:05:35 39° NE
Helios 1B rocket 2.3 20:04:05 10° NNE 20:08:14 81° ESE 20:12:22 10° S
Cosmos 2297 Rocket 2.5 20:03:32 10° S 20:08:19 43° ESE 20:08:19 43° ESE
Resurs 01 Rocket 2.0 20:06:47 10° S 20:11:08 64° WSW 20:15:30 10° NNW
Cosmos 2237 Rocket 3.4 20:06:42 10° N 20:10:07 26° NE 20:10:07 26° NE
Cosmos 2333 4.1 20:06:38 10° NNW 20:12:24 87° ENE 20:15:47 26° SSE
DELTA 2 R/B (1) 4.0 20:07:15 10° WNW 20:12:44 57° SSW 20:14:43 37° SSE
COSMOS 2428 2.7 20:07:31 10° NNW 20:13:13 80° WSW 20:17:41 17° SSE
USA 229 DEB 3.7 20:07:36 10° NNW 20:14:44 66° ENE 20:17:25 40° SE
USA 229 3.7 20:07:42 10° NNW 20:14:50 66° ENE 20:17:28 41° SE
Atlas Centaur 2 3.1 20:14:05 10° SW 20:20:40 36° SSE 20:21:05 36° SSE
BREEZE-M DEB (TANK) 3.2 20:18:47 10° NW 20:22:09 61° NE 20:22:41 57° ENE
Delta R/B 4.2 20:13:50 10° W 20:23:46 49° S 20:23:55 49° S
Resurs 1-3 4.2 20:19:36 10° S 20:23:53 54° W 20:28:11 10° NNW
Cosmos 2360 Rocket 4.4 20:20:04 10° NW 20:24:35 25° WSW 20:29:04 10° SSW
Cosmos 2219 Rocket 2.0 20:19:48 10° NNW 20:25:24 70° ENE 20:25:25 70° ENE
Cosmos 2227 Rocket 2.1 20:23:25 10° SSW 20:29:04 86° WNW 20:31:29 36° NNE
CZ-3 Stage 3 4.0 19:44:09 10° SW 20:29:32 52° SSE 20:32:48 41° ESE
OTV 4 3.7 20:32:58 10° W 20:33:37 15° W 20:33:37 15° W
Skynet4D Del rocket 4.2 20:32:04 10° WSW 20:36:27 44° SSW 20:36:27 44° SSW
NOSS 3-1 (C) 4.3 20:38:27 10° NNW 20:45:21 49° NE 20:45:21 49° NE
SL-16 R/B 4.5 20:42:07 10° N 20:42:32 12° N 20:42:32 12° N
Cosmos 1486 Rocket 4.5 20:43:47 10° SSW 20:48:30 59° WSW 20:48:30 59° WSW
Cosmos 2333 Rocket 3.1 21:01:53 10° NNW 21:05:58 45° NW 21:05:58 45° NW
ATLAS 3B CENTAUR R/B 4.3 21:21:40 10° WSW 21:44:13 60° S 21:44:13 60° S
